Location: Newark
(22.6667°N, 131.7500°E)
Time: 14:56:58
(UTC+00:00)

X-37B - Visible Passes

Search period start: 18 September 2020 00:00
Search period end: 28 September 2020 00:00
Orbit: 386 x 387 km, 45.0° (Epoch: 15 September)

Date Brightness Start Highest point End Pass type
(mag) Time Alt. Az. Time Alt. Az. Time Alt. Az.
23 Sep 3.4 20:21:11 10° N 20:23:18 16° NE 20:25:24 10° ENE visible
25 Sep 2.1 20:00:06 11° NNW 20:02:52 34° NE 20:05:48 10° ESE visible
26 Sep 3.6 19:05:02 15° NE 19:05:02 15° NE 19:06:19 10° ENE visible
26 Sep 1.5 20:37:59 10° WNW 20:40:50 30° SW 20:43:40 10° SSE visible
27 Sep 3.0 09:55:59 10° SSE 09:56:05 10° SSE 09:56:05 10° SSE visible
27 Sep 0.5 19:42:26 83° SSE 19:42:26 83° SSE 19:45:30 10° SE visible
